Location: Chiroubles
(46.1812°N, 4.6660°E)
Time: 06:46:22
(UTC+00:00)

Transit 4A - Pass Details

Date: 08 December 2020
Orbit: 864 x 980 km, 66.8° (Epoch: 25 January)

Event Time Altitude Azimuth Distance (km) Brightness Sun altitude
Rises 09:18:21 0° 298° (WNW) 3,685 10.5 14.6°
Reaches altitude 10° 09:23:04 10° 329° (NNW) 2,741 9.8 15.0°
Maximum altitude 09:25:20 12° 350° (N) 2,603 9.8 15.2°
Drops below altitude 10° 09:27:36 10° 11° (N) 2,736 10.0 15.4°
Sets 09:32:18 0° 42° (NE) 3,669 10.8 15.8°
